QPF
0.00 0.00 0.00 0.00 0.00 0.00 0.00 0.00 0.00 0.00 0.00 0.00 0.00 0.00 0.00 0.00 0.00 0.00 0.00 0.00 0.00 0.00 0.00 0.00 0.00 0.00 0.00 0.00 0.00 0.00 0.00 0.00 0.00 0.00 0.00 0.00 0.00 0.00 0.00 0.00 0.00 0.00 0.00 0.00 0.00
0.00 0.00 0.00 0.00 0.00 0.00 0.00 0.00 0.00 0.00 0.00 0.00 0.00 0.00 0.00 0.00 0.00 0.00 0.00 0.00 0.00 0.00 0.00 0.00 0.00 0.00 0.00 0.00 0.00 0.00 0.00 0.00 0.00 0.00 0.00 0.00 0.00 0.00 0.00 0.00 0.00 0.00 0.00 0.00 0.00
0.00 0.00 0.00 0.00 0.00 0.00 0.00 0.00 0.00 0.00 0.00 0.00 0.00 0.00 0.00 0.00 0.00 0.00 0.00 0.00 0.00 0.00 0.00 0.00 0.00 0.00 0.00 0.00 0.00 0.00 0.00 0.00 0.00 0.00 0.00 0.00 0.00 0.00 0.00 0.00 0.00 0.00 0.00 0.00 0.00
0.00 0.00 0.00 0.00 0.00 0.00 0.00 0.00 0.00 0.00 0.00 0.00 0.00 0.00 0.00 0.00 0.00 0.00 0.00 0.00 0.00 0.00 0.00 0.00 0.00 0.00 0.00 0.00 0.00 0.00 0.00 0.00 0.00 0.00 0.00 0.00 0.00 0.00 0.00 0.00 0.00 0.00 0.00 0.00 0.00
0.00 0.00 0.00 0.00 0.00 0.00 0.00 0.00 0.00 0.00 0.00 0.00 0.00 0.00 0.00 0.00 0.00 0.00 0.00 0.00 0.00 0.00 0.00 0.00 0.00 0.00 0.00 0.00 0.00 0.00 0.00 0.00 0.00 0.00 0.00 0.00 0.00 0.00 0.00 0.00 0.00 0.00 0.00 0.00 0.00
0.00 0.00 0.00 0.00 0.00 0.00 0.00 0.00 0.00 0.00 0.00 0.00 0.00 0.00 0.00 0.00 0.00 0.00 0.00 0.00 0.00 0.00 0.00 0.00 0.00 0.00 0.00 0.00 0.00 0.00 0.00 0.00 0.00 0.00 0.00 0.00 0.00 0.00 0.00 0.00 0.00 0.00 0.00 0.00 0.00
0.00 0.00 0.00 0.00 0.00 0.00 0.00 0.00 0.00 0.00 0.00 0.00 0.00 0.00 0.00 0.00 0.00 0.00 0.00 0.00 0.00 0.00 0.00 0.00 0.00 0.00 0.00 0.00 0.00 0.00 0.00 0.00 0.00 0.00 0.00 0.00 0.00 0.00 0.00 0.00 0.00 0.00 0.00 0.00 0.00
0.00 0.00 0.00 0.00 0.00 0.00 0.00 0.00 0.00 0.00 0.00 0.00 0.00 0.00 0.00 0.00 0.00 0.00 0.00 0.00 0.00 0.00 0.00 0.00 0.00 0.00 0.00 0.00 0.00 0.00 0.00 0.00 0.00 0.00 0.00 0.00 0.00 0.00 0.00 0.00 0.00 0.00 0.00 0.00 0.00
0.00 0.00 0.00 0.00 0.00 0.00 0.00 0.00 0.00 0.00 0.00 0.00 0.00 0.00 0.00 0.00 0.00 0.00 0.00 0.00 0.00 0.00 0.00 0.00 0.00 0.00 0.00 0.00 0.00 0.00 0.00 0.00 0.00 0.00 0.00 0.00 0.00 0.00 0.00 0.00 0.00 0.00 0.00 0.00 0.00
0.00 0.00 0.00 0.00 0.00 0.00 0.00 0.00 0.00 0.00 0.00 0.00 0.00 0.00 0.00 0.00 0.00 0.00 0.00 0.00 0.00 0.00 0.00 0.00 0.00 0.00 0.00 0.00 0.00 0.00 0.00 0.00 0.00 0.00 0.00 0.00 0.00 0.00 0.00 0.00 0.00 0.00 0.00 0.00 0.00
0.00 0.00 0.00 0.00 0.00 0.00 0.00 0.00 0.00 0.00 0.00 0.00 0.00 0.00 0.00 0.00 0.00 0.00 0.00 0.00 0.00 0.00 0.00 0.00 0.00 0.00 0.00 0.00 0.00 0.00 0.00 0.00 0.00 0.00 0.00 0.00 0.00 0.00 0.00 0.00 0.00 0.00 0.00 0.00 0.00
0.00 0.00 0.00 0.00 0.00 0.00 0.00 0.00 0.00 0.00 0.00 0.00 0.00 0.00 0.00 0.00 0.00 0.00 0.00 0.00 0.00 0.00 0.00 0.00 0.00 0.00 0.00 0.00 0.00 0.00 0.00 0.00 0.00 0.00 0.00 0.00 0.00 0.00 0.00 0.00 0.00 0.00 0.00 0.00 0.00
0.00 0.00 0.00 0.00 0.00 0.00 0.00 0.00 0.00 0.00 0.00 0.00 0.00 0.00 0.00 0.00 0.00 0.00 0.00 0.00 0.00 0.00 0.00 0.00 0.00 0.00 0.00 0.00 0.00 0.00 0.00 0.00 0.00 0.00 0.00 0.00 0.00 0.00 0.00 0.00 0.00 0.00 0.00 0.00 0.00
0.00 0.00 0.00 0.00 0.00 0.00 0.00 0.00 0.00 0.00 0.00 0.00 0.00 0.00 0.00 0.00 0.00 0.00 0.00 0.00 0.00 0.00 0.00 0.00 0.00 0.00 0.00 0.00 0.00 0.00 0.00 0.00 0.00 0.00 0.00 0.00 0.00 0.00 0.00 0.00 0.00 0.00 0.00 0.00 0.00
0.00 0.00 0.00 0.00 0.00 0.00 0.00 0.00 0.00 0.00 0.00 0.00 0.00 0.00 0.00 0.00 0.00 0.00 0.00 0.00 0.00 0.00 0.00 0.00 0.00 0.00 0.00 0.00 0.00 0.00 0.00 0.00 0.00 0.00 0.00 0.00 0.00 0.00 0.00 0.00 0.00 0.00 0.00 0.00 0.00
0.00 0.00 0.00 0.00 0.00 0.00 0.00 0.00 0.00 0.00 0.00 0.00 0.00 0.00 0.00 0.00 0.00 0.00 0.00 0.01 0.00 0.00 0.00 0.00 0.00 0.00 0.00 0.00 0.00 0.00 0.00 0.00 0.00 0.00 0.00 0.00 0.00 0.00 0.00 0.00 0.00 0.00 0.00 0.00 0.00
0.00 0.00 0.00 0.00 0.00 0.00 0.00 0.00 0.00 0.00 0.00 0.00 0.00 0.00 0.00 0.00 0.00 0.00 0.00 0.00 0.01 0.01 0.00 0.00 0.00 0.00 0.00 0.00 0.00 0.00 0.00 0.00 0.00 0.00 0.00 0.00 0.00 0.00 0.00 0.00 0.00 0.00 0.00 0.00 0.00
0.00 0.00 0.00 0.00 0.00 0.00 0.00 0.00 0.00 0.00 0.01 0.00 0.00 0.00 0.00 0.00 0.00 0.00 0.00 0.00 0.00 0.00 0.00 0.00 0.00 0.00 0.00 0.00 0.00 0.00 0.00 0.00 0.00 0.00 0.00 0.00 0.00 0.00 0.00 0.00 0.00 0.00 0.00 0.00 0.00
0.00 0.00 0.00 0.00 0.00 0.00 0.00 0.00 0.00 0.01 0.01 0.01 0.00 0.00 0.00 0.00 0.00 0.00 0.00 0.00 0.00 0.02 0.01 0.00 0.00 0.00 0.00 0.00 0.00 0.00 0.00 0.00 0.00 0.00 0.00 0.00 0.00 0.00 0.00 0.00 0.00 0.00 0.00 0.00 0.00
0.00 0.00 0.00 0.00 0.00 0.00 0.00 0.00 0.00 0.00 0.00 0.03 0.01 0.02 0.02 0.01 0.00 0.00 0.00 0.00 0.00 0.02 0.00 0.00 0.00 0.00 0.00 0.00 0.00 0.00 0.00 0.00 0.00 0.00 0.00 0.00 0.00 0.00 0.00 0.00 0.00 0.00 0.00 0.00 0.00
0.00 0.00 0.00 0.00 0.00 0.00 0.00 0.00 0.00 0.00 0.01 0.05 0.04 0.03 0.03 0.01 0.00 0.00 0.00 0.00 0.00 0.02 0.01 0.00 0.00 0.00 0.00 0.00 0.00 0.00 0.00 0.00 0.00 0.00 0.00 0.00 0.00 0.00 0.00 0.00 0.00 0.00 0.00 0.00 0.00
0.00 0.00 0.00 0.00 0.00 0.00 0.00 0.00 0.00 0.00 0.00 0.00 0.01 0.01 0.01 0.01 0.00 0.01 0.01 0.01 0.00 0.00 0.00 0.00 0.01 0.00 0.00 0.00 0.00 0.00 0.00 0.00 0.00 0.00 0.00 0.00 0.00 0.00 0.00 0.00 0.00 0.00 0.00 0.00 0.00
0.00 0.00 0.00 0.00 0.00 0.00 0.00 0.00 0.00 0.00 0.00 0.01 0.00 0.01 0.00 0.00 0.00 0.00 0.00 0.00 0.00 0.01 0.01 0.02 0.01 0.00 0.00 0.00 0.00 0.00 0.00 0.00 0.00 0.00 0.00 0.00 0.00 0.00 0.00 0.00 0.00 0.00 0.00 0.00 0.00
0.00 0.00 0.00 0.00 0.00 0.00 0.00 0.00 0.00 0.00 0.00 0.00 0.00 0.00 0.00 0.00 0.00 0.00 0.00 0.00 0.00 0.01 0.05 0.05 0.00 0.00 0.00 0.00 0.00 0.00 0.00 0.00 0.00 0.00 0.00 0.00 0.00 0.00 0.00 0.00 0.00 0.00 0.00 0.00 0.00
0.00 0.00 0.00 0.00 0.00 0.00 0.00 0.00 0.00 0.00 0.00 0.00 0.00 0.00 0.00 0.00 0.00 0.00 0.00 0.00 0.00 0.02 0.06 0.01 0.00 0.00 0.00 0.00 0.00 0.00 0.00 0.00 0.00 0.00 0.00 0.00 0.00 0.00 0.00 0.00 0.00 0.00 0.00 0.00 0.00
0.00 0.00 0.00 0.00 0.00 0.00 0.00 0.00 0.01 0.00 0.00 0.00 0.00 0.00 0.01 0.02 0.02 0.01 0.01 0.01 0.00 0.01 0.00 0.00 0.01 0.01 0.01 0.00 0.00 0.00 0.00 0.00 0.00 0.00 0.00 0.00 0.00 0.00 0.00 0.00 0.00 0.00 0.00 0.00 0.00
0.00 0.00 0.00 0.00 0.00 0.00 0.00 0.00 0.01 0.01 0.00 0.00 0.00 0.00 0.01 0.02 0.02 0.01 0.00 0.00 0.00 0.00 0.00 0.00 0.00 0.01 0.01 0.00 0.00 0.00 0.01 0.00 0.00 0.00 0.00 0.00 0.00 0.01 0.03 0.00 0.04 0.03 0.00 0.00 0.00
MSLP
1022.17 1021.80 1021.38 1020.99 1020.63 1020.27 1019.83 1019.36 1018.96 1018.52 1017.96 1017.49 1017.14 1016.98 1016.68 1016.46 1015.62 1014.75 1013.72 1011.03 1010.55 1009.95 1009.90 1009.84 1010.12 1010.13 1010.56 1010.41 1010.08 1010.20 1011.30 1010.91 1009.60 1008.44 1006.46 1006.04 1005.42 1003.43 1003.27 1003.05 1002.84 1002.63 1002.44 1002.53 1002.55
1022.32 1021.87 1021.39 1020.93 1020.45 1019.93 1019.50 1019.02 1018.64 1018.33 1017.80 1017.29 1017.03 1016.88 1016.47 1016.08 1015.04 1013.59 1010.19 1009.59 1009.51 1009.65 1009.96 1009.87 1009.98 1010.12 1010.32 1010.06 1009.91 1009.83 1010.03 1009.62 1008.15 1007.23 1006.41 1005.61 1006.08 1005.50 1003.89 1003.75 1003.03 1002.79 1002.68 1002.12 1002.12
1022.30 1021.84 1021.41 1020.99 1020.55 1020.12 1019.67 1019.18 1018.66 1018.20 1017.80 1017.54 1017.49 1017.09 1016.62 1016.29 1014.62 1010.64 1008.82 1009.07 1008.88 1009.42 1009.42 1009.53 1009.75 1010.01 1010.00 1009.79 1009.38 1008.69 1008.08 1008.25 1007.32 1007.04 1006.48 1005.73 1005.12 1005.51 1004.95 1004.05 1003.62 1003.25 1002.73 1002.13 1002.22
1022.16 1021.71 1021.30 1020.92 1020.53 1020.10 1019.67 1019.26 1018.83 1018.36 1017.95 1017.61 1017.19 1016.64 1016.52 1016.07 1013.61 1009.05 1008.69 1009.05 1008.98 1009.30 1009.61 1009.62 1009.71 1009.97 1009.83 1009.40 1008.92 1008.46 1007.45 1007.62 1007.24 1006.69 1006.27 1005.56 1005.27 1004.44 1004.23 1003.82 1003.11 1002.80 1002.68 1002.36 1002.17
1022.02 1021.56 1021.09 1020.60 1020.07 1019.58 1019.17 1018.80 1018.53 1018.33 1018.01 1017.63 1017.34 1017.11 1016.55 1015.84 1013.57 1009.23 1009.14 1009.51 1008.95 1008.85 1008.97 1009.12 1009.15 1009.31 1009.48 1009.14 1008.97 1007.80 1007.20 1007.38 1006.85 1006.41 1005.73 1005.38 1004.74 1004.15 1003.01 1002.72 1002.39 1002.14 1001.94 1001.91 1002.07
1021.85 1021.40 1020.83 1020.25 1019.72 1019.13 1018.60 1018.17 1017.81 1017.52 1017.27 1017.03 1016.79 1016.61 1016.67 1015.94 1011.81 1010.42 1010.24 1010.04 1009.64 1009.63 1008.94 1008.86 1008.52 1008.68 1009.09 1008.94 1008.74 1007.41 1007.51 1006.95 1006.53 1005.92 1005.33 1005.12 1003.94 1003.56 1002.68 1002.30 1001.82 1001.75 1001.55 1001.43 1001.53
1021.61 1021.09 1020.46 1019.88 1019.10 1018.39 1017.60 1017.14 1016.73 1016.51 1016.51 1016.30 1016.22 1016.08 1015.76 1014.03 1010.94 1010.24 1010.29 1010.24 1009.75 1009.95 1009.36 1008.37 1008.27 1008.47 1008.44 1008.80 1008.16 1007.91 1007.67 1006.89 1005.60 1005.51 1004.95 1004.88 1002.86 1002.08 1002.11 1002.04 1001.73 1001.67 1001.32 1001.09 1000.91
1021.57 1021.00 1020.51 1019.80 1018.97 1018.15 1017.22 1016.29 1015.51 1015.35 1015.54 1015.47 1015.53 1015.50 1014.21 1010.89 1010.79 1010.35 1009.74 1009.75 1009.18 1009.14 1009.18 1008.48 1008.34 1008.63 1008.56 1008.34 1008.01 1007.97 1007.68 1006.55 1004.53 1005.07 1004.81 1005.50 1000.32 1001.50 1001.87 1001.87 1001.39 1001.16 1000.90 1000.48 1000.04
1021.45 1020.87 1020.32 1019.51 1018.71 1018.11 1017.21 1016.05 1014.51 1014.47 1014.49 1014.69 1015.27 1015.20 1012.97 1010.30 1010.14 1008.52 1009.13 1009.04 1008.43 1008.25 1008.26 1007.90 1008.01 1008.30 1008.48 1008.64 1008.78 1007.91 1006.63 1005.66 1004.11 1004.71 1004.74 1004.60 998.89 1001.91 1001.79 1001.48 1001.02 1000.75 1000.22 999.85 999.42
1021.29 1020.61 1020.01 1019.33 1018.42 1017.78 1016.83 1015.53 1013.96 1013.82 1014.03 1014.48 1014.47 1015.05 1011.90 1009.83 1008.52 1008.41 1007.93 1008.02 1008.13 1007.84 1007.80 1007.93 1008.18 1008.28 1008.47 1008.35 1006.75 1007.02 1006.15 1004.73 1004.51 1004.90 1004.51 1004.07 1000.43 1001.47 1001.40 1000.98 1000.44 1000.11 999.57 999.32 998.88
1021.09 1020.34 1019.55 1018.73 1017.91 1017.19 1016.61 1015.59 1014.55 1014.34 1013.56 1014.34 1013.62 1012.85 1010.91 1009.05 1008.89 1007.95 1008.01 1008.15 1008.06 1008.31 1008.34 1008.26 1008.42 1007.03 1005.63 1007.32 1007.58 1006.69 1006.34 1005.28 1004.73 1004.37 1004.13 1002.86 1001.73 1000.81 1000.65 1000.24 1000.05 999.29 998.95 998.39 998.25
1020.99 1020.17 1019.19 1018.15 1017.26 1016.73 1016.88 1016.24 1014.99 1015.14 1013.50 1013.02 1012.10 1011.18 1009.74 1008.82 1008.88 1007.32 1008.00 1008.63 1008.23 1008.29 1008.04 1008.39 1007.02 1006.92 1007.62 1007.59 1007.49 1007.19 1006.52 1005.19 1005.43 1004.57 1003.91 1003.46 1001.66 1000.70 1000.03 999.43 999.50 998.87 998.35 998.10 997.68
1020.58 1019.87 1019.11 1017.95 1016.93 1016.42 1016.34 1015.36 1014.48 1014.37 1014.49 1012.54 1011.12 1009.97 1008.61 1007.77 1007.58 1007.41 1007.74 1007.91 1008.20 1008.31 1008.19 1008.05 1007.32 1007.33 1007.63 1007.38 1007.14 1006.44 1006.26 1006.00 1006.08 1005.27 1003.80 1003.98 1002.02 1000.53 999.37 998.90 998.57 998.28 997.50 997.34 996.86
1020.50 1019.68 1019.03 1018.29 1016.96 1016.73 1015.79 1014.64 1014.32 1014.14 1013.96 1012.34 1010.48 1008.63 1007.95 1007.38 1007.21 1006.71 1007.12 1007.71 1007.69 1007.94 1007.99 1007.55 1007.28 1007.22 1007.03 1006.77 1006.92 1005.81 1006.23 1006.22 1006.36 1006.10 1004.61 1004.68 1001.68 1000.48 999.03 997.86 997.82 997.48 997.27 996.65 996.31
1020.27 1019.66 1018.89 1018.56 1018.02 1017.02 1015.27 1014.50 1014.05 1014.26 1013.99 1011.41 1009.75 1008.15 1007.83 1008.06 1007.11 1006.47 1006.48 1006.62 1006.57 1007.20 1007.58 1006.88 1006.72 1006.72 1006.36 1006.15 1006.05 1005.39 1006.16 1006.01 1005.97 1005.62 1005.47 1004.61 1003.86 995.60 998.33 997.43 996.90 996.41 995.85 995.53 995.89
1019.62 1019.07 1018.78 1018.06 1018.04 1016.02 1014.87 1014.57 1014.25 1015.07 1013.93 1011.94 1010.27 1008.92 1008.41 1008.03 1007.50 1006.73 1006.27 1007.05 1007.52 1006.44 1006.56 1006.51 1006.48 1006.22 1005.87 1005.72 1005.65 1005.83 1005.58 1005.90 1005.90 1006.12 1005.33 1003.77 1003.56 996.24 997.51 996.56 996.16 995.44 995.23 995.23 995.26
1019.14 1018.28 1018.22 1018.00 1016.94 1015.24 1015.04 1015.30 1015.55 1015.37 1014.19 1012.59 1011.40 1010.29 1009.50 1009.07 1008.19 1007.65 1007.40 1007.67 1008.08 1007.79 1006.72 1006.50 1006.13 1005.56 1005.39 1005.39 1005.38 1005.66 1006.10 1006.47 1006.37 1005.76 1003.14 1002.89 1002.37 997.30 995.99 995.41 995.40 995.23 994.97 994.90 994.98
1018.56 1017.50 1016.98 1016.52 1015.83 1015.69 1015.89 1016.14 1016.32 1015.52 1014.85 1014.12 1012.95 1011.35 1010.37 1010.05 1009.21 1008.42 1007.73 1007.75 1007.12 1007.56 1007.51 1007.16 1006.31 1005.26 1004.78 1004.94 1005.08 1005.21 1005.82 1005.74 1005.43 1004.74 1003.40 1002.83 999.45 997.04 995.58 994.98 994.57 994.72 994.48 994.78 995.01
1018.05 1017.18 1016.72 1015.43 1015.28 1016.01 1016.76 1016.98 1016.60 1015.68 1015.45 1014.29 1013.01 1012.12 1011.34 1011.00 1010.54 1009.46 1008.86 1008.82 1008.40 1008.72 1008.69 1007.42 1006.37 1005.44 1005.13 1005.00 1005.28 1004.96 1005.00 1005.27 1005.41 1004.40 1003.92 1001.17 998.30 996.30 995.15 994.19 993.57 994.08 994.42 994.95 995.61
1018.49 1017.73 1016.40 1014.67 1015.14 1016.24 1017.26 1017.25 1016.19 1015.23 1014.09 1013.95 1014.02 1013.39 1012.41 1011.56 1010.95 1010.39 1009.54 1009.36 1009.18 1009.03 1008.56 1008.46 1007.51 1006.09 1005.51 1005.12 1004.93 1004.93 1005.08 1005.12 1005.16 1004.78 1003.66 1000.55 998.42 995.90 994.70 993.87 993.51 993.83 994.52 995.40 996.09
1018.49 1017.62 1015.30 1014.90 1015.34 1016.93 1017.68 1016.99 1015.59 1014.57 1013.89 1013.62 1013.38 1013.12 1012.92 1012.32 1011.56 1010.78 1010.23 1009.39 1009.17 1009.01 1008.85 1008.60 1008.96 1007.47 1006.76 1005.78 1005.06 1005.19 1004.87 1004.86 1004.58 1004.12 1002.55 1000.66 997.32 995.29 994.02 993.56 993.38 993.54 993.91 994.81 995.93
1019.64 1018.11 1015.43 1015.11 1016.62 1017.60 1017.68 1016.53 1015.53 1014.34 1013.83 1013.19 1012.92 1012.82 1012.83 1012.48 1011.86 1011.08 1010.51 1010.08 1009.35 1009.39 1009.19 1009.21 1009.40 1008.88 1007.34 1005.87 1005.10 1005.17 1005.18 1005.29 1005.15 1003.85 1002.08 1000.42 996.07 994.86 993.57 992.76 992.01 992.53 993.64 994.83 995.55
1020.43 1018.68 1015.74 1015.84 1017.67 1018.30 1017.60 1016.81 1015.80 1015.28 1013.98 1013.23 1012.99 1012.71 1012.50 1012.50 1012.26 1011.26 1010.55 1009.63 1009.33 1009.62 1009.58 1009.97 1009.96 1009.34 1007.35 1005.66 1005.46 1005.48 1005.08 1005.13 1004.62 1003.98 1001.91 1000.42 995.53 994.42 993.69 993.35 992.42 992.37 993.69 994.71 995.70
1020.95 1019.73 1018.01 1017.92 1018.53 1018.75 1018.20 1017.08 1016.06 1015.27 1014.12 1013.57 1013.07 1012.58 1012.61 1012.27 1011.79 1011.09 1010.36 1009.50 1009.13 1009.44 1009.69 1010.43 1010.28 1009.76 1008.69 1007.31 1006.84 1006.10 1005.30 1005.21 1004.74 1003.69 1001.77 999.63 997.95 994.91 993.63 993.55 993.15 994.12 993.42 994.43 995.40
1021.17 1020.74 1019.90 1019.51 1019.02 1018.81 1018.30 1017.32 1016.38 1015.54 1014.60 1013.82 1013.21 1012.98 1012.73 1012.17 1011.54 1010.75 1010.24 1009.77 1009.29 1008.70 1009.48 1010.05 1010.05 1009.62 1008.55 1007.63 1006.94 1005.83 1005.07 1004.65 1004.27 1003.38 1002.46 1000.18 997.86 995.29 994.02 993.47 993.19 993.84 993.81 994.63 995.40
1021.71 1021.67 1020.82 1020.10 1019.23 1018.71 1017.88 1017.26 1016.68 1015.84 1015.20 1014.00 1013.52 1012.67 1012.29 1012.01 1011.50 1010.49 1010.42 1010.04 1009.58 1009.06 1009.28 1009.69 1009.55 1008.97 1007.98 1006.73 1005.58 1004.94 1004.09 1003.83 1003.17 1002.66 1001.93 1000.57 997.05 996.22 995.07 993.71 993.53 993.72 993.72 994.34 995.08
1022.13 1021.64 1021.17 1019.81 1019.15 1018.80 1018.00 1017.33 1016.48 1015.78 1014.68 1013.95 1013.29 1012.48 1011.74 1010.84 1010.18 1009.33 1008.81 1008.32 1008.36 1008.41 1008.59 1008.93 1008.88 1008.48 1006.89 1006.18 1004.63 1004.26 1003.05 1002.71 1002.05 1001.49 1000.66 999.54 997.16 996.48 995.58 994.28 994.21 994.84 993.46 993.80 994.50
Thickness
5607 5610 5614 5617 5621 5624 5628 5632 5637 5642 5649 5654 5658 5661 5665 5669 5680 5689 5703 5730 5733 5740 5744 5745 5745 5743 5740 5739 5748 5746 5701 5702 5728 5743 5768 5773 5766 5804 5814 5805 5810 5816 5816 5818 5827
5602 5605 5609 5612 5617 5621 5625 5629 5632 5634 5640 5646 5649 5651 5657 5662 5675 5686 5724 5729 5733 5732 5731 5730 5729 5728 5721 5728 5731 5721 5703 5714 5751 5762 5763 5773 5759 5772 5787 5786 5797 5801 5814 5826 5829
5597 5600 5603 5605 5608 5612 5615 5619 5624 5628 5631 5633 5633 5638 5645 5651 5667 5698 5718 5722 5727 5722 5726 5725 5724 5717 5710 5720 5722 5728 5720 5739 5754 5757 5763 5765 5768 5768 5765 5766 5784 5788 5801 5817 5820
5591 5594 5596 5598 5600 5603 5606 5609 5612 5616 5620 5623 5627 5633 5635 5643 5659 5703 5706 5706 5712 5710 5709 5711 5707 5699 5698 5702 5725 5708 5736 5735 5744 5754 5753 5754 5767 5766 5768 5771 5794 5798 5799 5809 5812
5587 5589 5591 5594 5598 5600 5602 5603 5604 5605 5607 5611 5615 5618 5625 5629 5649 5682 5687 5689 5697 5701 5699 5697 5695 5693 5686 5698 5706 5711 5730 5726 5735 5742 5749 5754 5750 5757 5770 5788 5797 5801 5803 5801 5800
5582 5584 5586 5589 5591 5595 5597 5600 5602 5603 5604 5605 5607 5609 5611 5611 5648 5662 5663 5671 5676 5677 5686 5685 5688 5690 5682 5686 5688 5714 5708 5719 5725 5731 5740 5736 5749 5756 5769 5789 5792 5793 5795 5797 5797
5578 5579 5583 5586 5589 5592 5596 5597 5599 5599 5598 5598 5599 5601 5605 5615 5644 5653 5652 5654 5661 5662 5666 5679 5679 5673 5679 5675 5692 5695 5682 5698 5718 5723 5726 5737 5734 5744 5775 5779 5777 5780 5786 5789 5794
5571 5573 5575 5578 5581 5584 5589 5593 5597 5595 5591 5590 5588 5590 5601 5625 5629 5634 5643 5646 5652 5655 5657 5665 5666 5662 5665 5675 5679 5675 5674 5675 5718 5718 5722 5712 5725 5761 5767 5762 5764 5770 5775 5783 5793
5566 5568 5569 5572 5574 5574 5578 5584 5592 5589 5584 5579 5571 5570 5580 5613 5614 5631 5630 5632 5640 5646 5649 5654 5651 5649 5656 5648 5643 5654 5663 5675 5704 5716 5710 5703 5739 5743 5754 5756 5753 5759 5769 5778 5786
5561 5562 5563 5564 5567 5567 5570 5575 5581 5578 5569 5556 5557 5555 5576 5591 5610 5614 5621 5621 5621 5626 5629 5629 5625 5628 5630 5632 5644 5654 5667 5683 5679 5696 5700 5694 5720 5735 5745 5750 5751 5758 5769 5774 5781
5556 5557 5558 5559 5560 5559 5559 5559 5559 5552 5547 5525 5537 5544 5560 5574 5585 5593 5597 5601 5604 5602 5596 5604 5595 5625 5663 5650 5646 5656 5656 5666 5680 5691 5686 5698 5704 5723 5737 5742 5739 5753 5763 5774 5774
5549 5550 5552 5554 5555 5552 5543 5537 5533 5519 5518 5505 5513 5517 5535 5545 5551 5574 5575 5569 5577 5576 5587 5584 5604 5635 5632 5627 5632 5636 5637 5655 5661 5679 5684 5685 5696 5715 5733 5741 5741 5754 5763 5768 5776
5546 5545 5544 5546 5546 5540 5531 5525 5518 5508 5483 5494 5505 5510 5519 5528 5531 5543 5548 5549 5549 5554 5562 5569 5604 5616 5606 5611 5617 5629 5629 5642 5639 5659 5681 5666 5676 5702 5729 5737 5746 5749 5764 5767 5777
5539 5538 5536 5534 5537 5527 5521 5522 5516 5510 5480 5501 5508 5520 5522 5523 5518 5536 5537 5532 5536 5540 5548 5566 5589 5589 5591 5599 5604 5613 5634 5638 5634 5635 5634 5666 5648 5689 5722 5735 5741 5750 5752 5767 5775
5533 5531 5530 5524 5519 5515 5522 5518 5515 5501 5462 5513 5512 5525 5523 5513 5522 5527 5535 5529 5534 5533 5536 5565 5566 5567 5580 5593 5604 5618 5624 5627 5632 5631 5630 5641 5632 5731 5717 5722 5740 5752 5764 5774 5772
5531 5529 5523 5520 5512 5519 5519 5513 5504 5470 5449 5497 5506 5506 5511 5515 5518 5523 5531 5527 5524 5536 5544 5549 5553 5560 5574 5586 5597 5611 5615 5615 5624 5617 5601 5649 5643 5709 5710 5728 5738 5752 5760 5767 5769
5529 5529 5521 5514 5511 5518 5512 5500 5470 5450 5493 5493 5489 5494 5498 5500 5510 5515 5512 5514 5506 5503 5523 5535 5541 5562 5571 5573 5585 5589 5585 5571 5579 5585 5627 5660 5646 5704 5725 5738 5737 5746 5757 5765 5768
5529 5530 5527 5520 5517 5509 5499 5478 5441 5486 5478 5476 5476 5486 5489 5487 5498 5507 5512 5508 5523 5515 5514 5516 5525 5553 5568 5566 5566 5570 5573 5567 5576 5586 5627 5654 5651 5691 5736 5743 5752 5756 5762 5765 5765
5528 5527 5524 5526 5517 5502 5477 5447 5460 5474 5463 5467 5467 5476 5479 5482 5483 5496 5499 5496 5507 5503 5500 5512 5524 5547 5553 5561 5562 5568 5569 5596 5585 5610 5606 5644 5677 5706 5737 5742 5755 5755 5757 5753 5752
5520 5514 5519 5527 5515 5492 5463 5467 5473 5476 5480 5470 5449 5457 5464 5474 5480 5484 5492 5497 5495 5500 5505 5506 5510 5540 5545 5547 5558 5565 5580 5568 5573 5576 5585 5634 5655 5682 5719 5729 5742 5745 5746 5747 5745
5515 5512 5525 5521 5509 5475 5444 5460 5478 5480 5477 5468 5463 5460 5463 5466 5475 5481 5485 5497 5495 5497 5503 5502 5493 5516 5524 5532 5545 5551 5561 5571 5577 5586 5604 5612 5651 5701 5725 5732 5740 5744 5751 5748 5742
5497 5502 5518 5513 5478 5446 5449 5475 5477 5479 5474 5472 5470 5468 5460 5464 5468 5476 5482 5482 5496 5495 5496 5495 5482 5479 5510 5532 5548 5547 5551 5555 5551 5579 5608 5621 5665 5716 5728 5737 5751 5751 5750 5746 5743
5487 5490 5512 5502 5457 5451 5464 5470 5471 5458 5472 5471 5469 5471 5468 5464 5459 5475 5481 5491 5492 5489 5489 5484 5472 5471 5501 5527 5535 5533 5549 5554 5562 5578 5604 5615 5667 5713 5720 5727 5743 5749 5745 5740 5737
5480 5481 5485 5477 5467 5461 5454 5460 5465 5462 5469 5469 5467 5470 5463 5463 5468 5470 5477 5490 5493 5487 5489 5476 5473 5476 5470 5505 5511 5517 5532 5546 5554 5566 5607 5626 5653 5693 5713 5718 5731 5729 5744 5740 5736
5478 5474 5473 5456 5464 5457 5456 5458 5458 5457 5464 5465 5464 5465 5460 5459 5463 5469 5477 5479 5487 5495 5484 5471 5473 5481 5486 5496 5501 5519 5531 5542 5548 5569 5576 5619 5649 5686 5707 5715 5726 5728 5737 5734 5732
5468 5462 5461 5459 5461 5458 5460 5460 5450 5451 5453 5460 5457 5468 5465 5461 5459 5463 5460 5463 5468 5481 5472 5467 5470 5477 5487 5505 5517 5521 5539 5543 5557 5569 5583 5603 5650 5678 5690 5713 5718 5725 5734 5734 5731
5464 5460 5456 5469 5464 5456 5450 5456 5454 5455 5458 5464 5462 5466 5467 5472 5474 5475 5471 5474 5477 5479 5479 5474 5474 5485 5494 5507 5525 5522 5542 5550 5568 5582 5598 5607 5655 5670 5676 5701 5706 5709 5736 5736 5734